ECHOSTAR 23

Last updated on Tue Sep 22 2026 00:03:14 GMT+0000 (Coordinated Universal Time)

1 42070U 17014A 26264.53864424 .00000000 00000+0 00000+0 0 9990 2 42070 0.0248 163.2148 0002050 19.0423 262.1785 1.00269083 34883
UTC large
Height (km)
Speed (km/s)
/
Latitude / Longitude
Inclination (degrees)
Orbital Period (minutes)
Azimuth
Elevation
Range (km)
Doppler Factor

Next 0 passes for location: London (51.5072 / 0.1276)

No passes found over London.
ECHOSTAR 23